GW2830 Weather Reports


Display with metric or nautical units.
time (UTC)temp
F
wind
direction
speed
MPH
gust
MPH
rain 1hr
in
rain 24hr
in
rain mn
in
humidity
%
barometer
mb
20260509053514 53 189 1.0 1.0 0.00 0.00 0.00 90 1001.9
20260509053010 52 230 1.0 2.0 0.00 0.00 0.00 91 1001.9
20260509052508 52 241 1.0 1.0 0.00 0.00 0.00 90 1002.0
20260509052006 53 184 1.0 1.0 0.00 0.00 0.00 90 1002.0
20260509051504 52 234 1.0 1.0 0.00 0.00 0.00 90 1002.0
20260509051001 52 228 0.0 1.0 0.00 0.00 0.00 90 1002.0
20260509050457 52 243 0.0 0.0 0.00 0.00 0.00 90 1001.8
20260509045953 53 240 1.0 1.0 0.00 0.00 0.00 89 1002.1
20260509045451 53 182 1.0 1.0 0.00 0.00 0.00 90 1001.9
20260509044948 53 190 1.0 1.0 0.00 0.00 0.00 90 1001.9
20260509044445 53 210 1.0 1.0 0.00 0.00 0.00 89 1002.2
20260509043942 53 232 0.0 1.0 0.00 0.00 0.00 89 1001.9
20260509043438 53 213 0.0 1.0 0.00 0.00 0.00 89 1002.2
20260509042934 53 228 2.0 2.0 0.00 0.00 0.00 88 1002.1
20260509042431 54 201 2.0 2.0 0.00 0.00 0.00 88 1002.1
20260509041927 53 215 1.0 2.0 0.00 0.00 0.00 88 1002.5
20260509041424 53 144 2.0 2.0 0.00 0.00 0.00 90 1002.3
20260509040922 54 214 0.0 1.0 0.00 0.00 0.00 88 1002.2
20260509040420 53 203 1.0 1.0 0.00 0.00 0.00 90 1002.2
20260509035917 53 225 0.0 0.0 0.00 0.01 0.01 90 1002.1
20260509035414 53 227 0.0 1.0 0.00 0.01 0.01 89 1002.2
20260509034910 54 210 0.0 0.0 0.00 0.01 0.01 88 1002.4
20260509034408 55 221 0.0 0.0 0.00 0.01 0.01 87 1002.3
20260509033905 55 231 0.0 1.0 0.00 0.01 0.01 87 1002.3
20260509033402 55 218 1.0 1.0 0.00 0.01 0.01 86 1002.6
20260509032858 55 200 1.0 2.0 0.00 0.01 0.01 86 1002.6
20260509032355 55 210 0.0 1.0 0.00 0.01 0.01 86 1002.7
20260509031854 55 233 0.0 1.0 0.00 0.01 0.01 86 1002.6
20260509031351 56 256 2.0 2.0 0.00 0.01 0.01 85 1002.6
20260509030848 56 199 1.0 2.0 0.00 0.01 0.01 85 1002.7
20260509030345 55 225 0.0 1.0 0.00 0.01 0.01 85 1002.6
20260509025837 55 279 1.0 1.0 0.00 0.01 0.01 86 1002.7
20260509025332 53 287 1.0 2.0 0.00 0.01 0.01 90 1002.6
20260509024827 53 267 0.0 0.0 0.00 0.01 0.01 90 1002.7
20260509024324 53 198 0.0 0.0 0.00 0.01 0.01 89 1002.7
20260509023821 53 199 0.0 1.0 0.00 0.01 0.01 89 1002.7
20260509023319 53 201 0.0 0.0 0.00 0.01 0.01 89 1002.7
20260509022815 52 206 0.0 0.0 0.00 0.01 0.01 89 1002.8
20260509022313 53 206 0.0 0.0 0.00 0.01 0.01 89 1002.8
20260509021809 53 206 0.0 0.0 0.00 0.01 0.01 88 1002.9
20260509021306 53 206 0.0 0.0 0.00 0.01 0.01 87 1002.7
20260509020804 53 206 0.0 0.0 0.00 0.01 0.01 87 1002.7
20260509020302 53 206 0.0 0.0 0.00 0.01 0.01 86 1002.8
20260509015759 53 206 0.0 0.0 0.00 0.01 0.01 85 1003.0
20260509015257 53 206 0.0 0.0 0.00 0.01 0.01 85 1002.9
20260509014753 53 206 0.0 0.0 0.00 0.01 0.01 84 1002.9
20260509014250 54 207 0.0 0.0 0.00 0.01 0.01 83 1002.7
20260509013747 54 207 0.0 0.0 0.00 0.01 0.01 82 1002.8
20260509013242 54 207 0.0 0.0 0.00 0.01 0.01 81 1002.6
20260509012739 54 207 0.0 0.0 0.00 0.01 0.01 81 1002.8
20260509012236 54 207 0.0 0.0 0.00 0.01 0.01 80 1002.7
20260509011733 54 207 0.0 0.0 0.00 0.01 0.01 80 1002.7
20260509011231 54 207 0.0 0.0 0.00 0.01 0.01 80 1002.7
20260509010729 54 207 0.0 0.0 0.00 0.01 0.01 81 1002.7
20260509010225 54 215 0.0 0.0 0.00 0.01 0.01 79 1002.7
20260509005722 55 215 0.0 0.0 0.00 0.01 0.01 78 1002.4
20260509005219 55 215 0.0 0.0 0.00 0.01 0.01 77 1002.4
20260509004714 56 215 0.0 0.0 0.00 0.01 0.01 76 1002.4
20260509004212 57 215 0.0 0.0 0.00 0.01 0.01 75 1002.3
20260509003710 57 215 0.0 0.0 0.00 0.01 0.01 74 1002.6
20260509003207 58 215 0.0 0.0 0.00 0.01 0.01 72 1002.3
20260509002704 59 215 0.0 0.0 0.00 0.01 0.01 71 1002.4
20260509002202 59 215 0.0 0.0 0.00 0.01 0.01 69 1002.5
20260509001659 59 215 0.0 0.0 0.00 0.01 0.01 67 1002.5
20260509001155 59 218 0.0 0.0 0.00 0.01 0.01 68 1002.2
20260509000653 60 209 0.0 0.0 0.00 0.01 0.01 69 1002.3
20260509000150 60 209 0.0 0.0 0.00 0.01 0.01 69 1002.1
20260508235647 60 300 0.0 0.0 0.00 0.01 0.01 70 1002.2
20260508235143 60 300 0.0 0.0 0.00 0.01 0.01 67 1002.5
20260508234640 60 277 0.0 1.0 0.00 0.01 0.01 67 1002.3
20260508234136 60 236 0.0 0.0 0.00 0.01 0.01 68 1002.4
20260508233631 61 236 0.0 0.0 0.00 0.01 0.01 65 1002.2
20260508233128 61 236 0.0 0.0 0.00 0.01 0.01 61 1002.6
20260508232625 62 236 0.0 0.0 0.00 0.01 0.01 62 1002.5
20260508232122 63 236 0.0 0.0 0.00 0.01 0.01 63 1002.4
20260508231619 63 238 0.0 1.0 0.00 0.01 0.01 59 1002.4
20260508231116 63 257 0.0 0.0 0.00 0.01 0.01 57 1002.4
20260508230613 64 183 0.0 0.0 0.00 0.01 0.01 59 1002.3
20260508230109 64 191 0.0 0.0 0.00 0.01 0.01 58 1002.4
20260508225607 64 218 0.0 0.0 0.00 0.01 0.01 58 1002.5
20260508225103 64 189 1.0 1.0 0.00 0.01 0.01 57 1002.5
20260508224601 65 211 0.0 0.0 0.00 0.01 0.01 54 1002.4
20260508224058 65 304 0.0 0.0 0.00 0.01 0.01 55 1002.5
20260508223556 67 289 0.0 0.0 0.00 0.01 0.01 54 1002.6
20260508223053 66 288 0.0 0.0 0.00 0.01 0.01 55 1002.4
20260508222550 65 304 0.0 1.0 0.00 0.01 0.01 54 1002.5
20260508222047 66 220 1.0 1.0 0.00 0.01 0.01 52 1002.7
20260508221543 65 225 0.0 0.0 0.00 0.01 0.01 58 1002.7
20260508221039 65 229 0.0 0.0 0.00 0.01 0.01 59 1002.7
20260508220536 67 241 1.0 1.0 0.00 0.01 0.01 54 1002.6
20260508220032 67 184 1.0 2.0 0.00 0.01 0.01 56 1002.7
20260508215529 66 259 0.0 0.0 0.00 0.01 0.01 59 1002.6
20260508215026 65 234 0.0 1.0 0.00 0.01 0.01 59 1002.7
20260508214524 63 60 0.0 0.0 0.00 0.01 0.01 61 1002.7
20260508214020 63 263 0.0 1.0 0.00 0.01 0.01 63 1002.9
20260508213517 63 220 1.0 1.0 0.00 0.01 0.01 62 1002.6
20260508213012 64 217 2.0 2.0 0.00 0.01 0.01 60 1002.9
20260508212504 65 188 3.0 3.0 0.00 0.01 0.01 59 1002.7
20260508212000 64 276 0.0 0.0 0.00 0.01 0.01 60 1002.9
20260508211455 65 173 3.0 3.0 0.00 0.01 0.01 57 1002.7
20260508210952 64 65 2.0 3.0 0.00 0.01 0.01 58 1002.8
20260508210449 64 198 2.0 3.0 0.00 0.01 0.01 59 1002.9
20260508205945 63 188 2.0 2.0 0.00 0.01 0.01 60 1003.1
20260508205443 64 217 0.0 1.0 0.00 0.01 0.01 60 1002.9
20260508204939 64 253 0.0 0.0 0.00 0.01 0.01 62 1003.0
20260508204437 66 208 1.0 2.0 0.00 0.01 0.01 58 1003.2
20260508203931 64 161 3.0 4.0 0.00 0.01 0.01 58 1003.3
20260508203428 63 190 0.0 1.0 0.00 0.01 0.01 59 1003.1
20260508202924 64 194 5.0 6.0 0.00 0.01 0.01 57 1003.3
20260508202421 65 178 2.0 3.0 0.00 0.01 0.01 56 1003.2
20260508201918 64 265 0.0 1.0 0.00 0.01 0.01 58 1003.5
20260508201415 63 257 1.0 1.0 0.00 0.01 0.01 62 1003.6
20260508200912 64 185 4.0 4.0 0.00 0.01 0.01 60 1003.8
20260508200409 66 289 0.0 1.0 0.00 0.01 0.01 57 1003.6
20260508195904 65 339 1.0 2.0 0.00 0.01 0.01 58 1003.6
20260508195401 64 177 2.0 3.0 0.00 0.01 0.01 61 1003.7
20260508194857 63 238 4.0 6.0 0.00 0.01 0.01 59 1003.8
20260508194354 63 196 0.0 1.0 0.00 0.01 0.01 63 1003.8
20260508193851 63 272 0.0 1.0 0.00 0.01 0.01 60 1003.7
20260508193348 63 268 1.0 1.0 0.00 0.01 0.01 63 1003.9
20260508192844 63 175 3.0 4.0 0.00 0.01 0.01 61 1004.0
20260508192342 64 168 1.0 1.0 0.00 0.01 0.01 62 1004.3
20260508191838 65 232 3.0 4.0 0.00 0.01 0.01 59 1004.0
20260508191336 65 184 2.0 2.0 0.00 0.01 0.01 60 1004.1
20260508190833 64 195 3.0 3.0 0.00 0.01 0.01 61 1004.3
20260508190329 64 149 1.0 2.0 0.00 0.01 0.01 62 1004.2
20260508185826 63 310 0.0 0.0 0.00 0.01 0.01 59 1004.7
20260508185323 65 73 2.0 4.0 0.00 0.01 0.01 57 1004.6
20260508184820 64 214 2.0 2.0 0.00 0.01 0.01 55 1004.8
20260508184318 64 188 1.0 1.0 0.00 0.01 0.01 56 1004.7
20260508183814 64 260 1.0 1.0 0.00 0.01 0.01 57 1004.8
20260508183311 63 178 5.0 7.0 0.00 0.01 0.01 55 1004.8
20260508182806 63 233 3.0 3.0 0.00 0.01 0.01 54 1004.9
20260508182306 62 275 2.0 3.0 0.00 0.01 0.01 50 1005.3
20260508181753 62 149 0.0 0.0 0.00 0.01 0.01 52 1005.1
20260508181250 62 272 2.0 3.0 0.00 0.01 0.01 52 1005.2
20260508180748 63 192 3.0 3.0 0.00 0.01 0.01 51 1005.3
20260508180244 63 213 2.0 2.0 0.00 0.01 0.01 49 1005.2
20260508175741 64 211 2.0 2.0 0.00 0.01 0.01 50 1005.3
20260508175237 65 237 2.0 3.0 0.00 0.01 0.01 46 1005.3
20260508174735 63 212 1.0 1.0 0.00 0.01 0.01 52 1005.5
20260508174233 62 242 0.0 1.0 0.00 0.01 0.01 45 1005.5
20260508173728 62 210 2.0 2.0 0.00 0.01 0.01 50 1005.6
20260508173225 63 311 0.0 0.0 0.00 0.01 0.01 59 1005.6
20260508172722 61 203 1.0 2.0 0.00 0.01 0.01 52 1005.9
20260508172219 62 98 1.0 1.0 0.00 0.01 0.01 53 1005.6
20260508171715 62 210 0.0 0.0 0.00 0.01 0.01 55 1006.1
20260508171211 62 18 2.0 3.0 0.00 0.01 0.01 49 1006.1
20260508170709 61 180 1.0 1.0 0.00 0.01 0.01 52 1006.2
20260508170206 61 268 2.0 2.0 0.00 0.01 0.01 50 1006.1
20260508165703 63 191 1.0 1.0 0.00 0.01 0.01 47 1006.2
20260508165200 62 242 1.0 1.0 0.00 0.01 0.01 51 1006.4
20260508164656 61 211 3.0 3.0 0.00 0.01 0.01 49 1006.5
20260508164153 61 255 3.0 4.0 0.00 0.01 0.01 42 1006.2
20260508163651 62 223 2.0 2.0 0.00 0.01 0.01 49 1006.1
20260508163148 62 282 2.0 2.0 0.00 0.01 0.01 54 1006.4
20260508162643 63 246 1.0 2.0 0.00 0.01 0.01 51 1006.4
20260508162141 62 355 0.0 0.0 0.00 0.01 0.01 51 1006.6
20260508161638 62 195 1.0 1.0 0.00 0.01 0.01 48 1006.7
20260508161135 60 218 1.0 2.0 0.00 0.01 0.01 49 1006.8
20260508160634 60 222 1.0 1.0 0.00 0.01 0.01 55 1006.8
20260508160131 59 212 1.0 1.0 0.00 0.01 0.01 59 1006.9
20260508155628 58 199 3.0 3.0 0.00 0.01 0.01 64 1006.9
20260508155124 59 281 2.0 3.0 0.00 0.01 0.01 61 1006.9
20260508154621 59 208 2.0 2.0 0.00 0.01 0.01 61 1006.8
20260508154118 58 162 2.0 2.0 0.00 0.01 0.01 64 1007.0
20260508153615 59 271 1.0 1.0 0.00 0.01 0.01 71 1007.1
20260508153112 59 227 2.0 2.0 0.00 0.01 0.01 69 1006.9
20260508152609 58 195 1.0 1.0 0.00 0.01 0.01 72 1006.6
20260508152104 58 251 1.0 2.0 0.00 0.01 0.01 74 1006.6
20260508151601 57 190 1.0 2.0 0.00 0.01 0.01 77 1006.8
20260508151058 58 247 0.0 1.0 0.00 0.01 0.01 78 1006.7
20260508150555 56 222 2.0 2.0 0.00 0.01 0.01 79 1006.8
20260508150050 55 202 0.0 0.0 0.00 0.01 0.01 80 1006.9
20260508145542 55 236 1.0 1.0 0.00 0.01 0.01 80 1006.9
20260508145038 55 193 1.0 1.0 0.00 0.01 0.01 79 1006.8
20260508144536 55 241 2.0 2.0 0.00 0.01 0.01 81 1006.8
20260508144033 56 242 0.0 0.0 0.00 0.01 0.01 81 1006.7
20260508143531 56 187 2.0 3.0 0.00 0.01 0.01 81 1006.8
20260508143027 55 197 0.0 1.0 0.00 0.01 0.01 83 1006.7
20260508142524 56 186 4.0 4.0 0.00 0.01 0.01 81 1007.0
20260508142020 55 267 1.0 1.0 0.00 0.01 0.01 85 1006.8
20260508141517 54 221 2.0 2.0 0.00 0.01 0.01 85 1007.0
20260508141015 53 199 2.0 3.0 0.00 0.01 0.01 87 1007.2
20260508140512 52 213 1.0 1.0 0.00 0.01 0.01 90 1007.3
20260508140008 51 195 1.0 1.0 0.00 0.01 0.01 93 1007.3
20260508135504 51 182 2.0 2.0 0.00 0.01 0.01 94 1007.2
20260508135001 51 106 0.0 1.0 0.00 0.01 0.01 97 1007.2
20260508134457 50 187 1.0 1.0 0.00 0.01 0.01 98 1007.2
20260508133954 50 220 0.0 0.0 0.00 0.01 0.01 99 1007.4
20260508133451 49 181 1.0 2.0 0.00 0.01 0.01 99 1007.3
20260508132948 48 232 1.0 1.0 0.00 0.01 0.01 99 1007.1
20260508132446 49 244 2.0 2.0 0.00 0.01 0.01 99 1007.3
20260508131942 48 291 1.0 1.0 0.00 0.01 0.01 99 1007.3
20260508131438 48 227 1.0 1.0 0.00 0.01 0.01 99 1007.1
20260508130934 48 228 1.0 1.0 0.00 0.01 0.01 99 1007.1
20260508130431 47 225 0.0 0.0 0.00 0.01 0.01 99 1007.1
20260508125927 48 227 0.0 0.0 0.00 0.01 0.01 99 1007.4
20260508125424 47 207 1.0 1.0 0.00 0.01 0.01 99 1007.1
20260508124922 47 224 0.0 0.0 0.00 0.01 0.01 99 1007.3
20260508124419 46 221 0.0 0.0 0.00 0.01 0.01 99 1007.3
20260508123917 45 209 0.0 1.0 0.00 0.01 0.01 99 1007.4
20260508123416 46 202 1.0 1.0 0.00 0.01 0.01 99 1007.5
20260508122911 46 239 0.0 0.0 0.00 0.01 0.01 99 1007.3
20260508122409 45 204 0.0 0.0 0.00 0.01 0.01 99 1007.1
20260508121905 44 189 0.0 0.0 0.00 0.01 0.01 99 1007.3
20260508121403 44 189 0.0 0.0 0.00 0.01 0.01 99 1007.3
20260508120901 44 189 0.0 0.0 0.00 0.01 0.01 99 1007.2
20260508120358 43 189 0.0 0.0 0.00 0.01 0.01 99 1007.2
20260508115855 43 187 0.0 0.0 0.00 0.01 0.01 99 1007.1
20260508115353 43 187 0.0 0.0 0.00 0.01 0.01 99 1007.1
20260508114849 42 187 0.0 0.0 0.00 0.01 0.01 99 1007.0
20260508114346 42 193 0.0 0.0 0.00 0.01 0.01 99 1006.9
20260508113843 42 193 0.0 0.0 0.00 0.01 0.01 99 1007.0
20260508113342 41 196 0.0 0.0 0.00 0.01 0.01 99 1007.0
20260508112838 41 196 0.0 0.0 0.00 0.01 0.01 99 1007.0
20260508112336 40 197 0.0 0.0 0.00 0.01 0.01 99 1006.9
20260508111832 39 190 0.0 0.0 0.00 0.01 0.01 99 1006.9
20260508111329 39 190 0.0 0.0 0.00 0.01 0.01 99 1007.1
20260508110826 38 190 0.0 0.0 0.00 0.01 0.01 99 1006.8
20260508110324 38 190 0.0 0.0 0.00 0.01 0.01 99 1006.8
20260508105823 38 190 0.0 0.0 0.00 0.01 0.01 99 1006.6
20260508105320 37 190 0.0 0.0 0.00 0.01 0.01 99 1006.8
20260508104817 37 190 0.0 0.0 0.00 0.01 0.01 99 1006.5
20260508104314 37 190 0.0 0.0 0.00 0.01 0.01 99 1006.5
20260508103811 37 190 0.0 0.0 0.00 0.01 0.01 99 1006.5
20260508103308 37 190 0.0 0.0 0.00 0.01 0.01 99 1006.6
20260508102806 37 190 0.0 0.0 0.00 0.01 0.01 99 1006.4
20260508102306 37 190 0.0 0.0 0.00 0.01 0.01 99 1006.6
20260508101800 37 190 0.0 0.0 0.00 0.01 0.01 99 1006.7
20260508101258 37 190 0.0 0.0 0.00 0.01 0.01 99 1006.8
20260508100755 37 190 0.0 0.0 0.00 0.01 0.01 99 1006.8
20260508100254 38 190 0.0 0.0 0.00 0.01 0.01 99 1007.0
20260508095749 38 190 0.0 0.0 0.00 0.01 0.01 99 1006.7
20260508095247 38 190 0.0 0.0 0.00 0.01 0.01 99 1006.8
20260508094744 38 190 0.0 0.0 0.00 0.01 0.01 99 1006.7
20260508094241 39 190 0.0 0.0 0.00 0.01 0.01 99 1006.4
20260508093738 39 190 0.0 0.0 0.00 0.01 0.01 99 1006.8
20260508093235 39 190 0.0 0.0 0.00 0.01 0.01 99 1006.6
20260508092732 39 190 0.0 0.0 0.00 0.01 0.01 99 1006.6
20260508092230 39 190 0.0 0.0 0.00 0.01 0.01 99 1006.7
20260508091728 38 192 0.0 0.0 0.00 0.01 0.01 99 1006.7
20260508091225 39 192 0.0 0.0 0.00 0.01 0.01 99 1006.7
20260508090722 39 192 0.0 0.0 0.00 0.01 0.01 99 1006.7
20260508090220 39 192 0.0 0.0 0.00 0.01 0.01 99 1007.1
20260508085716 39 193 0.0 0.0 0.00 0.01 0.01 99 1006.6
20260508085213 39 201 0.0 0.0 0.00 0.01 0.01 99 1006.8
20260508084709 39 203 0.0 0.0 0.00 0.01 0.01 99 1006.8
20260508084207 39 203 0.0 0.0 0.00 0.01 0.01 99 1006.7
20260508083704 39 203 0.0 0.0 0.00 0.01 0.01 99 1006.8
20260508083202 39 203 0.0 0.0 0.00 0.01 0.01 99 1006.7
20260508082656 39 212 0.0 0.0 0.00 0.01 0.01 99 1006.8
20260508082154 39 213 0.0 0.0 0.00 0.01 0.01 99 1006.6
20260508081651 39 213 0.0 0.0 0.00 0.01 0.01 99 1006.7
20260508081147 39 213 0.0 0.0 0.00 0.01 0.01 99 1006.6
20260508080645 39 213 0.0 0.0 0.00 0.01 0.01 99 1006.8
20260508080143 39 213 0.0 0.0 0.00 0.01 0.01 99 1006.6
20260508075639 40 213 0.0 0.0 0.00 0.01 0.01 99 1006.8
20260508075136 40 212 0.0 0.0 0.00 0.01 0.01 99 1006.9
20260508074634 40 212 0.0 0.0 0.00 0.01 0.01 99 1006.9
20260508074131 40 212 0.0 0.0 0.00 0.01 0.01 99 1006.7
20260508073628 40 212 0.0 0.0 0.00 0.01 0.01 99 1006.9
20260508073126 41 212 0.0 0.0 0.00 0.01 0.01 99 1006.6
20260508072621 41 213 0.0 0.0 0.00 0.01 0.01 99 1006.9
20260508072118 41 213 0.0 0.0 0.00 0.01 0.01 99 1006.8
20260508071616 41 201 0.0 0.0 0.00 0.01 0.01 99 1007.1
20260508071114 41 200 0.0 0.0 0.00 0.01 0.01 99 1006.8
20260508070611 40 219 0.0 0.0 0.00 0.01 0.01 99 1007.0
20260508070110 41 219 0.0 0.0 0.00 0.01 0.01 99 1007.0
20260508065607 41 216 0.0 0.0 0.00 0.01 0.01 99 1006.8
20260508065104 41 216 0.0 0.0 0.00 0.01 0.01 99 1007.1
20260508064602 41 216 0.0 0.0 0.00 0.01 0.01 99 1007.1
20260508064100 41 216 0.0 0.0 0.00 0.01 0.01 99 1007.0
20260508063557 41 216 0.0 0.0 0.00 0.01 0.01 99 1006.9
20260508063055 42 216 0.0 0.0 0.00 0.01 0.01 99 1006.8
20260508062552 42 219 0.0 0.0 0.00 0.01 0.01 99 1007.0
20260508062048 42 218 0.0 0.0 0.00 0.01 0.01 99 1007.0
20260508061546 43 210 0.0 0.0 0.00 0.01 0.01 99 1006.7
20260508061043 42 208 0.0 1.0 0.00 0.01 0.01 99 1007.1
20260508060540 42 202 0.0 0.0 0.00 0.01 0.01 99 1007.0
20260508060037 43 201 0.0 0.0 0.00 0.01 0.01 99 1007.2
20260508055533 43 203 0.0 1.0 0.00 0.01 0.01 99 1007.0
20260508055030 42 120 0.0 0.0 0.00 0.01 0.01 99 1007.1
20260508054526 42 120 0.0 0.0 0.00 0.01 0.01 99 1006.9
20260508054024 42 118 0.0 0.0 0.00 0.01 0.01 99 1007.1